Location: Spring Creek
(38.2870°N, 100.2160°W)
Time: 03:52:36
(UTC+00:00)

Cosmos 1455 - Pass Details

Date: 08 May 2021
Orbit: 498 x 520 km, 82.5° (Epoch: 22 June)

Event Time Altitude Azimuth Distance (km) Brightness Sun altitude
Rises 10:50:48 0° 359° (N) 2,633 6.2 -8.8°
Reaches altitude 10° 10:53:00 10° 6° (N) 1,746 5.4 -8.4°
Maximum altitude 10:56:41 44° 80° (E) 722 3.5 -7.8°
Drops below altitude 10° 11:00:21 10° 153° (SSE) 1,742 4.9 -7.2°
Sets 11:02:33 0° 160° (SSE) 2,627 5.7 -6.8°
